Flag for Norway Weather past 2 weeks in Horten, Norway

Now
61 °F

Clear.


Feels Like: 61 °F
Forecast: 44 / 64 °F
Wind: 13 mph from Southeast

Location: Oseberg

Current Time: Sep 17, 2014 at 3:35:31 AM

Latest Report: Sep 17, 2014 at 2:46 AM


Visibility: 10 mi

Pressure: 30.21 "Hg

Humidity: 83%

Dew point: 55 °F

Location of HortenLocation

Historic Weather in Horten — Graph

°F

Horten temperature yesterday

Maximum temperature yesterday: 63 °F (at 10:50 AM)
Minimum temperature yesterday: 55 °F (at 4:50 AM)
Average temperature yesterday: 59 °F

Past Weeks' High & Low Weather Summary

 TemperatureHumidityPressure
High63 °F (Sep 16, 10:50 AM)100% (Sep 3, 10:50 PM)30.48 "Hg (Sep 3, 10:50 PM)
Low54 °F (Sep 6, 6:20 AM)42% (Sep 16, 5:20 PM)29.74 "Hg (Sep 7, 6:50 AM)
Average57 °F88%30.16 "Hg
* Reported Sep 2 1:50 AM — Sep 17 1:50 AM, Horten, Weather by CustomWeather, © 2014

Note: Actual official high and low records may vary slightly from our data, if they occured in-between our weather recording intervals... More about our weather records

Advertising

Horten weather history for previous 24 hours

 ConditionsComfort  
Time TempWeatherWind HumidityBarometerVisibility
1:50 AM
Sep 17
59 °FClear.10 mph94%30.21 "Hg10 mi
12:50 AM59 °FClear.15 mph94%30.21 "Hg10 mi
11:50 PM
Sep 16
59 °FClear.13 mph94%30.21 "Hg10 mi
10:50 PM59 °FClear.14 mph94%30.21 "Hg10 mi
9:50 PM61 °FClear.10 mph83%30.24 "Hg10 mi
8:50 PM63 °FClear.15 mph56%30.21 "Hg10 mi
6:50 PM63 °FSunny.16 mph56%30.21 "Hg10 mi
6:20 PM63 °FSunny.14 mph45%30.21 "Hg10 mi
5:50 PM63 °FSunny.15 mph42%30.21 "Hg10 mi
5:20 PM63 °FSunny.16 mph42%30.21 "Hg10 mi
4:20 PM61 °FSunny.16 mph59%30.24 "Hg10 mi
3:50 PM61 °FSunny.15 mph59%30.24 "Hg10 mi
2:50 PM61 °FSunny.12 mph72%30.24 "Hg10 mi
2:20 PM61 °FPassing clouds.14 mph77%30.24 "HgN/A
1:50 PM61 °FPassing clouds.15 mph83%30.24 "HgN/A
1:20 PM61 °FPassing clouds.14 mph77%30.27 "HgN/A
12:50 PM61 °FScattered clouds.13 mph72%30.27 "HgN/A
12:20 PM61 °FPartly sunny.14 mph68%30.27 "HgN/A
11:50 AM61 °FPartly sunny.14 mph63%30.27 "HgN/A
11:20 AM61 °FFog.13 mph55%30.27 "HgN/A
10:50 AM63 °FFog.12 mph52%30.27 "HgN/A
10:20 AM61 °FScattered clouds.9 mph63%30.27 "HgN/A
9:50 AM57 °FFog.10 mph88%30.27 "HgN/A
9:20 AM57 °FFog.12 mph100%30.27 "HgN/A
8:50 AM57 °FFog.9 mph94%30.27 "HgN/A
8:20 AM55 °FFog.6 mph100%30.27 "HgN/A
7:50 AM55 °FFog.3 mph100%30.27 "Hg4 mi
7:20 AM55 °FFog.3 mph100%30.27 "Hg4 mi
6:50 AM55 °FFog.5 mph100%30.27 "Hg0 mi
5:50 AM55 °FFog.10 mph100%30.27 "Hg0 mi
4:50 AM55 °FFog.13 mph94%30.27 "Hg0 mi
Weather by CustomWeather, © 2014

See weather overviewHow to use our weather pages